Time,TemperatureF,DewpointF,PressureIn,WindDirection,WindDirectionDegrees,WindSpeedMPH,WindSpeedGustMPH,Humidity,HourlyPrecipIn,Conditions,Clouds,dailyrainin,SoftwareType,DateUTC
2013-07-24 00:04:00,67.3,61.6,29.93,NNE,15,0.0,3.0,82,0.00,,SKC,0.00,VWS V12.07,2013-07-24 05:04:00,
2013-07-24 00:10:00,67.0,61.7,29.94,NNE,20,0.0,3.0,83,0.00,,SKC,0.00,VWS V12.07,2013-07-24 05:10:00,
2013-07-24 00:17:00,66.5,61.5,29.94,NE,52,2.0,3.0,84,0.00,,SKC,0.00,VWS V12.07,2013-07-24 05:17:00,
2013-07-24 00:24:00,66.1,61.5,29.93,NNW,333,0.0,3.0,85,0.00,,SKC,0.00,VWS V12.07,2013-07-24 05:24:00,
2013-07-24 00:30:00,65.9,61.3,29.93,NNE,25,0.0,3.0,85,0.00,,SKC,0.00,VWS V12.07,2013-07-24 05:30:00,
2013-07-24 00:37:00,65.6,61.0,29.94,NNE,30,0.0,1.0,85,0.00,,SKC,0.00,VWS V12.07,2013-07-24 05:37:00,
2013-07-24 00:44:00,65.5,61.2,29.94,NNE,15,0.0,1.0,86,0.00,,SKC,0.00,VWS V12.07,2013-07-24 05:44:00,
2013-07-24 00:50:00,65.3,61.0,29.93,NNE,30,0.0,1.0,86,0.00,,SKC,0.00,VWS V12.07,2013-07-24 05:50:00,
2013-07-24 00:57:00,65.1,60.8,29.93,NE,44,0.0,1.0,86,0.00,,SKC,0.00,VWS V12.07,2013-07-24 05:57:00,
2013-07-24 01:04:00,65.0,60.7,29.93,NE,49,0.0,0.0,86,0.00,,SKC,0.00,VWS V12.07,2013-07-24 06:04:00,
2013-07-24 01:10:00,64.7,60.8,29.94,NE,46,0.0,0.0,87,0.00,,SKC,0.00,VWS V12.07,2013-07-24 06:10:00,
2013-07-24 01:17:00,64.5,60.5,29.94,NE,34,0.0,0.0,87,0.00,,SKC,0.00,VWS V12.07,2013-07-24 06:17:00,
2013-07-24 01:24:00,64.3,60.7,29.95,NNE,33,0.0,0.0,88,0.00,,SKC,0.00,VWS V12.07,2013-07-24 06:24:00,
2013-07-24 01:30:00,64.1,60.5,29.95,NNE,33,0.0,0.0,88,0.00,,SKC,0.00,VWS V12.07,2013-07-24 06:30:00,
2013-07-24 01:37:00,64.1,60.5,29.95,NE,56,0.0,0.0,88,0.00,,SKC,0.00,VWS V12.07,2013-07-24 06:37:00,
2013-07-24 01:44:00,64.0,60.4,29.95,NE,56,0.0,0.0,88,0.00,,SKC,0.00,VWS V12.07,2013-07-24 06:44:00,
2013-07-24 01:49:00,63.7,60.4,29.95,NE,56,0.0,0.0,89,0.00,,SKC,0.00,VWS V12.07,2013-07-24 06:49:00,
2013-07-24 01:57:00,63.2,60.2,29.94,NE,56,0.0,0.0,90,0.00,,SKC,0.00,VWS V12.07,2013-07-24 06:57:00,
2013-07-24 02:03:00,62.8,59.8,29.95,NE,56,0.0,0.0,90,0.00,,SKC,0.00,VWS V12.07,2013-07-24 07:03:00,
2013-07-24 02:09:00,62.5,59.5,29.94,NE,56,0.0,0.0,90,0.00,,SKC,0.00,VWS V12.07,2013-07-24 07:09:00,
2013-07-24 02:14:00,62.3,59.6,29.95,NE,56,0.0,0.0,91,0.00,,SKC,0.00,VWS V12.07,2013-07-24 07:14:00,
2013-07-24 02:22:00,62.3,60.0,29.95,NE,56,0.0,0.0,92,0.00,,SKC,0.00,VWS V12.07,2013-07-24 07:22:00,
2013-07-24 02:28:00,62.6,59.9,29.95,NE,56,0.0,0.0,91,0.00,,SKC,0.00,VWS V12.07,2013-07-24 07:28:00,
2013-07-24 02:35:00,62.8,60.1,29.95,NE,56,0.0,0.0,91,0.00,,SKC,0.00,VWS V12.07,2013-07-24 07:35:00,
2013-07-24 02:42:00,62.6,59.6,29.95,NE,56,0.0,0.0,90,0.00,,SKC,0.00,VWS V12.07,2013-07-24 07:42:00,
2013-07-24 02:48:00,62.2,59.5,29.95,NE,56,0.0,0.0,91,0.00,,SKC,0.00,VWS V12.07,2013-07-24 07:48:00,
2013-07-24 02:54:00,62.1,59.8,29.95,NE,56,0.0,0.0,92,0.00,,SKC,0.00,VWS V12.07,2013-07-24 07:54:00,
2013-07-24 03:02:00,62.1,59.8,29.95,NE,53,0.0,0.0,92,0.00,,SKC,0.00,VWS V12.07,2013-07-24 08:02:00,
2013-07-24 03:08:00,62.1,59.8,29.96,NE,54,0.0,0.0,92,0.00,,SKC,0.00,VWS V12.07,2013-07-24 08:08:00,
2013-07-24 03:15:00,62.1,59.8,29.96,NE,54,0.0,0.0,92,0.00,,SKC,0.00,VWS V12.07,2013-07-24 08:15:00,
2013-07-24 03:22:00,61.8,59.8,29.96,NE,54,0.0,0.0,93,0.00,,SKC,0.00,VWS V12.07,2013-07-24 08:22:00,
2013-07-24 03:28:00,61.8,59.8,29.96,NE,53,0.0,0.0,93,0.00,,SKC,0.00,VWS V12.07,2013-07-24 08:28:00,
2013-07-24 03:35:00,61.8,59.8,29.96,NE,54,0.0,0.0,93,0.00,,SKC,0.00,VWS V12.07,2013-07-24 08:35:00,
2013-07-24 03:42:00,61.6,59.6,29.95,NE,54,0.0,0.0,93,0.00,,SKC,0.00,VWS V12.07,2013-07-24 08:42:00,
2013-07-24 03:49:00,61.5,59.8,29.95,North,8,0.0,0.0,94,0.00,,SKC,0.00,VWS V12.07,2013-07-24 08:49:00,
2013-07-24 03:54:00,61.5,59.8,29.95,NE,34,0.0,0.0,94,0.00,,SKC,0.00,VWS V12.07,2013-07-24 08:54:00,
2013-07-24 04:02:00,61.8,60.1,29.95,NE,56,1.0,1.0,94,0.00,,SKC,0.00,VWS V12.07,2013-07-24 09:02:00,
2013-07-24 04:08:00,62.4,60.0,29.95,ESE,106,1.0,5.0,92,0.00,,SKC,0.00,VWS V12.07,2013-07-24 09:08:00,
2013-07-24 04:13:00,62.9,60.2,29.95,ENE,78,2.0,5.0,91,0.00,,SKC,0.00,VWS V12.07,2013-07-24 09:13:00,
2013-07-24 04:20:00,63.2,60.2,29.96,ENE,76,1.0,5.0,90,0.00,,SKC,0.00,VWS V12.07,2013-07-24 09:20:00,
2013-07-24 04:27:00,63.4,60.4,29.96,ESE,118,1.0,5.0,90,0.00,,SKC,0.00,VWS V12.07,2013-07-24 09:27:00,
2013-07-24 04:33:00,63.4,60.4,29.97,ESE,102,2.0,5.0,90,0.00,,SKC,0.00,VWS V12.07,2013-07-24 09:33:00,
2013-07-24 04:38:00,63.4,60.4,29.97,ENE,69,0.0,5.0,90,0.00,,SKC,0.00,VWS V12.07,2013-07-24 09:38:00,
2013-07-24 04:44:00,63.5,60.5,29.97,SE,128,1.0,5.0,90,0.00,,SKC,0.00,VWS V12.07,2013-07-24 09:44:00,
2013-07-24 04:52:00,63.5,60.8,29.97,East,98,5.0,7.0,91,0.00,,SKC,0.00,VWS V12.07,2013-07-24 09:52:00,
2013-07-24 04:58:00,63.6,60.6,29.97,ESE,112,2.0,7.0,90,0.00,,SKC,0.00,VWS V12.07,2013-07-24 09:58:00,
2013-07-24 05:04:00,63.4,60.7,29.98,ESE,117,0.0,3.0,91,0.00,,SKC,0.00,VWS V12.07,2013-07-24 10:04:00,
2013-07-24 05:12:00,63.5,60.5,29.98,East,92,6.0,8.0,90,0.00,,SKC,0.00,VWS V12.07,2013-07-24 10:12:00,
2013-07-24 05:19:00,63.4,60.4,29.98,SE,129,3.0,8.0,90,0.00,,SKC,0.00,VWS V12.07,2013-07-24 10:19:00,
2013-07-24 05:25:00,63.2,60.2,29.98,East,94,2.0,8.0,90,0.00,,SKC,0.00,VWS V12.07,2013-07-24 10:25:00,
2013-07-24 05:32:00,63.0,60.0,29.98,ESE,111,2.0,5.0,90,0.00,,SKC,0.00,VWS V12.07,2013-07-24 10:32:00,
2013-07-24 05:39:00,62.9,59.9,29.98,ESE,115,0.0,6.0,90,0.00,,SKC,0.00,VWS V12.07,2013-07-24 10:39:00,
2013-07-24 05:45:00,62.8,59.8,29.98,ESE,113,1.0,6.0,90,0.00,,SKC,0.00,VWS V12.07,2013-07-24 10:45:00,
2013-07-24 05:52:00,62.7,59.7,29.98,SE,145,2.0,8.0,90,0.00,,SKC,0.00,VWS V12.07,2013-07-24 10:52:00,
2013-07-24 05:58:00,62.5,59.5,29.98,ESE,118,3.0,8.0,90,0.00,,SKC,0.00,VWS V12.07,2013-07-24 10:58:00,
2013-07-24 06:04:00,62.5,59.5,29.98,ESE,110,3.0,6.0,90,0.00,,SKC,0.00,VWS V12.07,2013-07-24 11:04:00,
2013-07-24 06:10:00,62.4,59.4,29.98,East,87,0.0,6.0,90,0.00,,SKC,0.00,VWS V12.07,2013-07-24 11:10:00,
2013-07-24 06:17:00,62.2,59.2,29.98,East,84,1.0,6.0,90,0.00,,SKC,0.00,VWS V12.07,2013-07-24 11:17:00,
2013-07-24 06:23:00,62.2,59.2,29.99,ESE,102,2.0,6.0,90,0.00,,SKC,0.00,VWS V12.07,2013-07-24 11:23:00,
2013-07-24 06:29:00,62.1,59.1,29.99,East,99,2.0,6.0,90,0.00,,SKC,0.00,VWS V12.07,2013-07-24 11:29:00,
2013-07-24 06:34:00,62.2,59.2,29.99,ESE,115,2.0,4.0,90,0.00,,SKC,0.00,VWS V12.07,2013-07-24 11:34:00,
2013-07-24 06:42:00,62.5,59.5,29.99,East,87,2.0,4.0,90,0.00,,SKC,0.00,VWS V12.07,2013-07-24 11:42:00,
2013-07-24 06:48:00,63.2,59.6,30.00,ESE,110,0.0,4.0,88,0.00,,SKC,0.00,VWS V12.07,2013-07-24 11:48:00,
2013-07-24 06:54:00,63.7,59.8,30.00,ESE,108,1.0,4.0,87,0.00,,SKC,0.00,VWS V12.07,2013-07-24 11:54:00,
2013-07-24 07:02:00,64.1,59.8,30.00,ESE,108,0.0,1.0,86,0.00,,SKC,0.00,VWS V12.07,2013-07-24 12:02:00,
2013-07-24 07:08:00,64.7,59.8,30.00,SE,126,3.0,5.0,84,0.00,,SKC,0.00,VWS V12.07,2013-07-24 12:08:00,
2013-07-24 07:14:00,64.9,59.3,30.00,SE,126,3.0,7.0,82,0.00,,SKC,0.00,VWS V12.07,2013-07-24 12:14:00,
2013-07-24 07:20:00,65.1,59.1,30.01,ESE,117,5.0,7.0,81,0.00,,SKC,0.00,VWS V12.07,2013-07-24 12:20:00,
2013-07-24 07:30:00,65.6,58.9,30.00,ESE,117,3.0,7.0,79,0.00,,SKC,0.00,VWS V12.07,2013-07-24 12:30:00,
2013-07-24 07:37:00,65.8,58.8,30.00,SE,133,3.0,7.0,78,0.00,,SKC,0.00,VWS V12.07,2013-07-24 12:37:00,
2013-07-24 07:44:00,66.0,58.2,30.00,SSE,162,2.0,8.0,76,0.00,,SKC,0.00,VWS V12.07,2013-07-24 12:44:00,
2013-07-24 07:50:00,66.3,58.5,30.00,SSW,194,5.0,8.0,76,0.00,,SKC,0.00,VWS V12.07,2013-07-24 12:50:00,
2013-07-24 07:57:00,66.4,57.9,30.01,SSE,162,4.0,9.0,74,0.00,,SKC,0.00,VWS V12.07,2013-07-24 12:57:00,
2013-07-24 08:04:00,66.7,58.2,30.00,SE,127,3.0,9.0,74,0.00,,SKC,0.00,VWS V12.07,2013-07-24 13:04:00,
2013-07-24 08:10:00,66.9,58.0,30.00,SSE,148,3.0,10.0,73,0.00,,SKC,0.00,VWS V12.07,2013-07-24 13:10:00,
2013-07-24 08:17:00,67.2,58.3,30.00,SE,138,4.0,10.0,73,0.00,,SKC,0.00,VWS V12.07,2013-07-24 13:17:00,
2013-07-24 08:23:00,67.3,57.6,30.00,SE,134,3.0,12.0,71,0.00,,SKC,0.00,VWS V12.07,2013-07-24 13:23:00,
2013-07-24 08:30:00,67.4,57.3,30.01,ESE,115,6.0,12.0,70,0.00,,SKC,0.00,VWS V12.07,2013-07-24 13:30:00,
2013-07-24 08:37:00,67.6,57.9,30.01,South,188,4.0,13.0,71,0.00,,SKC,0.00,VWS V12.07,2013-07-24 13:37:00,
2013-07-24 08:44:00,68.2,57.2,30.01,SSE,153,2.0,13.0,68,0.00,,SKC,0.00,VWS V12.07,2013-07-24 13:44:00,
2013-07-24 08:49:00,68.4,57.8,30.01,SSE,165,2.0,13.0,69,0.00,,SKC,0.00,VWS V12.07,2013-07-24 13:49:00,
2013-07-24 08:57:00,68.8,57.8,30.00,East,83,6.0,13.0,68,0.00,,SKC,0.00,VWS V12.07,2013-07-24 13:57:00,
2013-07-24 09:04:00,69.1,57.7,30.00,SSE,148,11.0,11.0,67,0.00,,SKC,0.00,VWS V12.07,2013-07-24 14:04:00,
2013-07-24 09:10:00,69.1,57.3,30.01,SSE,153,6.0,11.0,66,0.00,,SKC,0.00,VWS V12.07,2013-07-24 14:10:00,
2013-07-24 09:17:00,69.2,57.0,30.00,SE,128,8.0,11.0,65,0.00,,SKC,0.00,VWS V12.07,2013-07-24 14:17:00,
2013-07-24 09:23:00,69.4,57.6,30.01,SE,125,4.0,11.0,66,0.00,,SKC,0.00,VWS V12.07,2013-07-24 14:23:00,
2013-07-24 09:30:00,69.6,56.5,30.00,SE,144,3.0,11.0,63,0.00,,SKC,0.00,VWS V12.07,2013-07-24 14:30:00,
2013-07-24 09:37:00,70.0,57.3,30.00,ESE,108,5.0,9.0,64,0.00,,SKC,0.00,VWS V12.07,2013-07-24 14:37:00,
2013-07-24 09:44:00,70.5,59.0,30.00,SE,129,1.0,9.0,67,0.00,,SKC,0.00,VWS V12.07,2013-07-24 14:44:00,
2013-07-24 09:49:00,70.7,57.1,30.01,SSE,160,3.0,12.0,62,0.00,,SKC,0.00,VWS V12.07,2013-07-24 14:49:00,
2013-07-24 09:57:00,71.0,57.3,30.01,East,93,2.0,12.0,62,0.00,,SKC,0.00,VWS V12.07,2013-07-24 14:57:00,
2013-07-24 10:03:00,71.1,58.3,30.01,SE,135,4.0,6.0,64,0.00,,SKC,0.00,VWS V12.07,2013-07-24 15:03:00,
2013-07-24 10:10:00,70.9,56.8,30.01,ESE,113,6.0,8.0,61,0.00,,SKC,0.00,VWS V12.07,2013-07-24 15:10:00,
2013-07-24 10:17:00,71.0,56.9,30.01,SSE,150,5.0,10.0,61,0.00,,SKC,0.00,VWS V12.07,2013-07-24 15:17:00,
2013-07-24 10:24:00,71.2,57.1,30.01,SSE,159,5.0,10.0,61,0.00,,SKC,0.00,VWS V12.07,2013-07-24 15:24:00,
2013-07-24 10:30:00,71.2,57.1,30.01,ESE,120,5.0,13.0,61,0.00,,SKC,0.00,VWS V12.07,2013-07-24 15:30:00,
2013-07-24 10:37:00,71.3,57.6,30.01,SE,130,7.0,9.0,62,0.00,,SKC,0.00,VWS V12.07,2013-07-24 15:37:00,
2013-07-24 10:44:00,71.5,57.4,30.01,SE,129,1.0,9.0,61,0.00,,SKC,0.00,VWS V12.07,2013-07-24 15:44:00,
2013-07-24 10:50:00,72.3,58.1,30.01,NE,43,5.0,9.0,61,0.00,,SKC,0.00,VWS V12.07,2013-07-24 15:50:00,
2013-07-24 10:57:00,72.3,59.5,30.02,SE,141,3.0,10.0,64,0.00,,SKC,0.00,VWS V12.07,2013-07-24 15:57:00,
2013-07-24 11:04:00,72.1,57.5,30.02,East,94,3.0,7.0,60,0.00,,SKC,0.00,VWS V12.07,2013-07-24 16:04:00,
2013-07-24 11:10:00,72.6,58.4,30.02,NE,51,3.0,7.0,61,0.00,,SKC,0.00,VWS V12.07,2013-07-24 16:10:00,
2013-07-24 11:17:00,72.8,59.5,30.03,SSE,167,2.0,7.0,63,0.00,,SKC,0.00,VWS V12.07,2013-07-24 16:17:00,
2013-07-24 11:24:00,73.0,59.2,30.03,ESE,120,2.0,7.0,62,0.00,,SKC,0.00,VWS V12.07,2013-07-24 16:24:00,
2013-07-24 11:30:00,73.1,58.9,30.03,SE,126,2.0,7.0,61,0.00,,SKC,0.00,VWS V12.07,2013-07-24 16:30:00,
2013-07-24 11:37:00,73.2,59.9,30.03,West,277,0.0,6.0,63,0.00,,SKC,0.00,VWS V12.07,2013-07-24 16:37:00,
2013-07-24 11:44:00,73.7,59.4,30.03,SE,131,3.0,6.0,61,0.00,,SKC,0.00,VWS V12.07,2013-07-24 16:44:00,
2013-07-24 11:50:00,74.0,59.7,30.03,East,101,2.0,7.0,61,0.00,,SKC,0.00,VWS V12.07,2013-07-24 16:50:00,
2013-07-24 11:57:00,73.8,59.1,30.04,East,81,2.0,9.0,60,0.00,,SKC,0.00,VWS V12.07,2013-07-24 16:57:00,
2013-07-24 12:04:00,74.3,59.5,30.04,WNW,285,3.0,8.0,60,0.00,,SKC,0.00,VWS V12.07,2013-07-24 17:04:00,
2013-07-24 12:10:00,74.5,59.2,30.04,NNW,343,1.0,9.0,59,0.00,,SKC,0.00,VWS V12.07,2013-07-24 17:10:00,
2013-07-24 12:17:00,74.5,59.7,30.03,SE,125,1.0,9.0,60,0.00,,SKC,0.00,VWS V12.07,2013-07-24 17:17:00,
2013-07-24 12:24:00,74.9,60.1,30.03,ESE,117,0.0,9.0,60,0.00,,SKC,0.00,VWS V12.07,2013-07-24 17:24:00,
2013-07-24 12:30:00,74.7,58.5,30.03,NNW,338,1.0,9.0,57,0.00,,SKC,0.00,VWS V12.07,2013-07-24 17:30:00,
2013-07-24 12:37:00,74.8,59.5,30.03,ESE,117,6.0,9.0,59,0.00,,SKC,0.00,VWS V12.07,2013-07-24 17:37:00,
2013-07-24 12:44:00,74.9,60.6,30.03,SE,136,4.0,9.0,61,0.00,,SKC,0.00,VWS V12.07,2013-07-24 17:44:00,
2013-07-24 12:50:00,74.8,60.5,30.03,North,11,4.0,9.0,61,0.00,,SKC,0.00,VWS V12.07,2013-07-24 17:50:00,
2013-07-24 12:57:00,75.6,60.3,30.03,ESE,103,2.0,9.0,59,0.00,,SKC,0.00,VWS V12.07,2013-07-24 17:57:00,
2013-07-24 13:04:00,76.9,62.0,30.03,WNW,300,1.0,3.0,60,0.00,,SKC,0.00,VWS V12.07,2013-07-24 18:04:00,
2013-07-24 13:10:00,76.6,60.7,30.03,NNE,30,2.0,4.0,58,0.00,,SKC,0.00,VWS V12.07,2013-07-24 18:10:00,
2013-07-24 13:20:00,76.1,61.7,30.03,NE,34,3.0,8.0,61,0.00,,SKC,0.00,VWS V12.07,2013-07-24 18:20:00,
2013-07-24 13:27:00,75.6,60.3,30.03,SE,124,1.0,12.0,59,0.00,,SKC,0.00,VWS V12.07,2013-07-24 18:27:00,
2013-07-24 13:34:00,76.1,59.8,30.03,NE,44,2.0,5.0,57,0.00,,SKC,0.00,VWS V12.07,2013-07-24 18:34:00,
2013-07-24 13:40:00,75.8,61.4,30.03,ENE,70,1.0,5.0,61,0.00,,SKC,0.00,VWS V12.07,2013-07-24 18:40:00,
2013-07-24 13:47:00,76.0,60.7,30.02,East,90,0.0,9.0,59,0.00,,SKC,0.00,VWS V12.07,2013-07-24 18:47:00,
2013-07-24 13:54:00,76.1,60.8,30.03,East,84,4.0,9.0,59,0.00,,SKC,0.00,VWS V12.07,2013-07-24 18:54:00,
2013-07-24 14:00:00,76.8,60.4,30.02,NW,309,2.0,9.0,57,0.00,,SKC,0.00,VWS V12.07,2013-07-24 19:00:00,
2013-07-24 14:07:00,75.7,60.8,30.03,SE,125,0.0,10.0,60,0.00,,SKC,0.00,VWS V12.07,2013-07-24 19:07:00,
2013-07-24 14:14:00,76.2,60.4,30.03,NNE,20,4.0,10.0,58,0.00,,SKC,0.00,VWS V12.07,2013-07-24 19:14:00,
2013-07-24 14:20:00,76.6,59.8,30.02,ESE,122,4.0,10.0,56,0.00,,SKC,0.00,VWS V12.07,2013-07-24 19:20:00,
2013-07-24 14:27:00,76.1,60.3,30.02,ENE,58,2.0,10.0,58,0.00,,SKC,0.00,VWS V12.07,2013-07-24 19:27:00,
2013-07-24 14:34:00,75.7,60.8,30.03,North,356,0.0,3.0,60,0.00,,SKC,0.00,VWS V12.07,2013-07-24 19:34:00,
2013-07-24 14:40:00,76.6,60.2,30.03,NNW,346,3.0,7.0,57,0.00,,SKC,0.00,VWS V12.07,2013-07-24 19:40:00,
2013-07-24 14:47:00,76.4,60.5,30.02,SSE,154,2.0,7.0,58,0.00,,SKC,0.00,VWS V12.07,2013-07-24 19:47:00,
2013-07-24 14:54:00,76.9,60.5,30.02,ENE,61,2.0,7.0,57,0.00,,SKC,0.00,VWS V12.07,2013-07-24 19:54:00,
2013-07-24 15:00:00,77.0,60.1,30.02,NNE,24,5.0,7.0,56,0.00,,SKC,0.00,VWS V12.07,2013-07-24 20:00:00,
2013-07-24 15:07:00,77.3,59.9,30.02,WNW,300,1.0,6.0,55,0.00,,SKC,0.00,VWS V12.07,2013-07-24 20:07:00,
2013-07-24 15:14:00,76.6,60.2,30.02,ENE,72,3.0,6.0,57,0.00,,SKC,0.00,VWS V12.07,2013-07-24 20:14:00,
2013-07-24 15:20:00,75.9,60.6,30.02,North,349,5.0,6.0,59,0.00,,SKC,0.00,VWS V12.07,2013-07-24 20:20:00,
2013-07-24 15:27:00,77.4,61.5,30.02,ESE,113,2.0,7.0,58,0.00,,SKC,0.00,VWS V12.07,2013-07-24 20:27:00,
2013-07-24 15:34:00,77.8,60.9,30.02,NE,49,4.0,4.0,56,0.00,,SKC,0.00,VWS V12.07,2013-07-24 20:34:00,
2013-07-24 15:40:00,77.9,60.5,30.02,ESE,104,5.0,9.0,55,0.00,,SKC,0.00,VWS V12.07,2013-07-24 20:40:00,
2013-07-24 15:47:00,78.1,61.1,30.02,East,82,1.0,9.0,56,0.00,,SKC,0.00,VWS V12.07,2013-07-24 20:47:00,
2013-07-24 15:54:00,78.7,60.7,30.02,NNE,12,3.0,9.0,54,0.00,,SKC,0.00,VWS V12.07,2013-07-24 20:54:00,
2013-07-24 16:00:00,77.5,60.1,30.02,East,101,2.0,9.0,55,0.00,,SKC,0.00,VWS V12.07,2013-07-24 21:00:00,
2013-07-24 16:07:00,76.9,60.5,30.02,NNE,24,1.0,7.0,57,0.00,,SKC,0.00,VWS V12.07,2013-07-24 21:07:00,
2013-07-24 16:14:00,77.6,60.2,30.02,NE,44,6.0,9.0,55,0.00,,SKC,0.00,VWS V12.07,2013-07-24 21:14:00,
2013-07-24 16:20:00,77.9,61.0,30.02,NNE,26,5.0,9.0,56,0.00,,SKC,0.00,VWS V12.07,2013-07-24 21:20:00,
2013-07-24 16:27:00,78.3,60.8,30.01,ENE,61,2.0,9.0,55,0.00,,SKC,0.00,VWS V12.07,2013-07-24 21:27:00,
2013-07-24 16:34:00,78.8,61.3,30.01,NNW,330,5.0,9.0,55,0.00,,SKC,0.00,VWS V12.07,2013-07-24 21:34:00,
2013-07-24 16:40:00,78.0,60.5,30.01,NNE,19,2.0,9.0,55,0.00,,SKC,0.00,VWS V12.07,2013-07-24 21:40:00,
2013-07-24 16:47:00,77.1,59.7,30.02,North,353,1.0,9.0,55,0.00,,SKC,0.00,VWS V12.07,2013-07-24 21:47:00,
2013-07-24 16:54:00,76.9,61.0,30.01,NNE,32,3.0,9.0,58,0.00,,SKC,0.00,VWS V12.07,2013-07-24 21:54:00,
2013-07-24 17:00:00,77.3,60.9,30.01,East,96,0.0,9.0,57,0.00,,SKC,0.00,VWS V12.07,2013-07-24 22:00:00,
2013-07-24 17:07:00,78.2,61.7,30.01,SE,143,1.0,5.0,57,0.00,,SKC,0.00,VWS V12.07,2013-07-24 22:07:00,
2013-07-24 17:14:00,78.6,60.6,30.01,NNW,328,2.0,5.0,54,0.00,,SKC,0.00,VWS V12.07,2013-07-24 22:14:00,
2013-07-24 17:20:00,78.7,60.2,30.01,NNE,30,3.0,8.0,53,0.00,,SKC,0.00,VWS V12.07,2013-07-24 22:20:00,
2013-07-24 17:27:00,78.3,60.3,30.01,NW,315,1.0,8.0,54,0.00,,SKC,0.00,VWS V12.07,2013-07-24 22:27:00,
2013-07-24 17:34:00,77.7,60.3,30.01,NNE,15,2.0,5.0,55,0.00,,SKC,0.00,VWS V12.07,2013-07-24 22:34:00,
2013-07-24 17:40:00,77.5,60.6,30.01,NE,39,2.0,6.0,56,0.00,,SKC,0.00,VWS V12.07,2013-07-24 22:40:00,
2013-07-24 17:47:00,76.8,59.9,30.01,ESE,120,2.0,7.0,56,0.00,,SKC,0.00,VWS V12.07,2013-07-24 22:47:00,
2013-07-24 17:54:00,77.5,59.0,30.01,ENE,71,1.0,8.0,53,0.00,,SKC,0.00,VWS V12.07,2013-07-24 22:54:00,
2013-07-24 18:00:00,77.8,60.4,30.01,NW,323,0.0,8.0,55,0.00,,SKC,0.00,VWS V12.07,2013-07-24 23:00:00,
2013-07-24 18:07:00,77.8,60.9,30.01,East,101,1.0,7.0,56,0.00,,SKC,0.00,VWS V12.07,2013-07-24 23:07:00,
2013-07-24 18:14:00,78.3,60.3,30.01,East,99,1.0,7.0,54,0.00,,SKC,0.00,VWS V12.07,2013-07-24 23:14:00,
2013-07-24 18:20:00,78.0,59.5,30.01,ENE,61,4.0,7.0,53,0.00,,SKC,0.00,VWS V12.07,2013-07-24 23:20:00,
2013-07-24 18:27:00,78.0,59.5,30.01,ENE,71,1.0,7.0,53,0.00,,SKC,0.00,VWS V12.07,2013-07-24 23:27:00,
2013-07-24 18:34:00,77.7,59.2,30.01,NNE,30,2.0,7.0,53,0.00,,SKC,0.00,VWS V12.07,2013-07-24 23:34:00,
2013-07-24 18:40:00,77.4,59.5,30.01,ENE,75,2.0,7.0,54,0.00,,SKC,0.00,VWS V12.07,2013-07-24 23:40:00,
2013-07-24 18:47:00,77.0,59.1,30.01,ENE,70,1.0,7.0,54,0.00,,SKC,0.00,VWS V12.07,2013-07-24 23:47:00,
2013-07-24 18:54:00,76.9,59.5,30.01,ENE,63,3.0,7.0,55,0.00,,SKC,0.00,VWS V12.07,2013-07-24 23:54:00,
2013-07-24 19:00:00,76.8,59.9,30.01,NE,51,0.0,7.0,56,0.00,,SKC,0.00,VWS V12.07,2013-07-25 00:00:00,
2013-07-24 19:07:00,77.1,61.2,30.01,NE,43,0.0,3.0,58,0.00,,SKC,0.00,VWS V12.07,2013-07-25 00:07:00,
2013-07-24 19:14:00,76.7,59.3,30.01,NNE,30,4.0,4.0,55,0.00,,SKC,0.00,VWS V12.07,2013-07-25 00:14:00,
2013-07-24 19:20:00,76.4,59.1,30.01,East,82,2.0,5.0,55,0.00,,SKC,0.00,VWS V12.07,2013-07-25 00:20:00,
2013-07-24 19:27:00,75.9,59.1,30.02,NE,39,0.0,6.0,56,0.00,,SKC,0.00,VWS V12.07,2013-07-25 00:27:00,
2013-07-24 19:34:00,75.8,59.0,30.01,NNE,25,1.0,2.0,56,0.00,,SKC,0.00,VWS V12.07,2013-07-25 00:34:00,
2013-07-24 19:40:00,75.5,59.2,30.01,ENE,77,0.0,2.0,57,0.00,,SKC,0.00,VWS V12.07,2013-07-25 00:40:00,
2013-07-24 19:47:00,75.3,59.5,30.01,ENE,77,0.0,2.0,58,0.00,,SKC,0.00,VWS V12.07,2013-07-25 00:47:00,
2013-07-24 19:54:00,74.8,59.0,30.01,ESE,113,0.0,3.0,58,0.00,,SKC,0.00,VWS V12.07,2013-07-25 00:54:00,
2013-07-24 20:00:00,74.5,58.8,30.01,ESE,112,0.0,3.0,58,0.00,,SKC,0.00,VWS V12.07,2013-07-25 01:00:00,
2013-07-24 20:07:00,74.2,59.0,30.01,East,89,0.0,0.0,59,0.00,,SKC,0.00,VWS V12.07,2013-07-25 01:07:00,
2013-07-24 20:14:00,73.4,59.2,30.01,ESE,102,0.0,0.0,61,0.00,,SKC,0.00,VWS V12.07,2013-07-25 01:14:00,
2013-07-24 20:20:00,72.7,58.9,30.01,ESE,102,0.0,0.0,62,0.00,,SKC,0.00,VWS V12.07,2013-07-25 01:20:00,
2013-07-24 20:24:00,72.3,58.6,30.01,ESE,102,0.0,0.0,62,0.00,,SKC,0.00,VWS V12.07,2013-07-25 01:24:00,
2013-07-24 20:30:00,71.7,58.5,30.01,East,101,0.0,0.0,63,0.00,,SKC,0.00,VWS V12.07,2013-07-25 01:30:00,
2013-07-24 20:39:00,70.7,58.4,30.01,ESE,102,0.0,0.0,65,0.00,,SKC,0.00,VWS V12.07,2013-07-25 01:39:00,
2013-07-24 20:45:00,70.3,57.6,30.01,East,83,1.0,1.0,64,0.00,,SKC,0.00,VWS V12.07,2013-07-25 01:45:00,
2013-07-24 20:52:00,70.1,57.8,30.02,East,91,0.0,1.0,65,0.00,,SKC,0.00,VWS V12.07,2013-07-25 01:52:00,
2013-07-24 20:59:00,69.7,57.8,30.02,East,92,0.0,1.0,66,0.00,,SKC,0.00,VWS V12.07,2013-07-25 01:59:00,
2013-07-24 21:05:00,69.3,57.9,30.02,East,79,0.0,1.0,67,0.00,,SKC,0.00,VWS V12.07,2013-07-25 02:05:00,
2013-07-24 21:12:00,68.9,57.5,30.02,ENE,72,0.0,1.0,67,0.00,,SKC,0.00,VWS V12.07,2013-07-25 02:12:00,
2013-07-24 21:19:00,68.3,57.8,30.02,ENE,72,0.0,1.0,69,0.00,,SKC,0.00,VWS V12.07,2013-07-25 02:19:00,
2013-07-24 21:25:00,68.1,57.6,30.02,ESE,109,0.0,1.0,69,0.00,,SKC,0.00,VWS V12.07,2013-07-25 02:25:00,
2013-07-24 21:34:00,68.3,57.3,30.02,ESE,103,0.0,2.0,68,0.00,,SKC,0.00,VWS V12.07,2013-07-25 02:34:00,
2013-07-24 21:40:00,68.4,57.4,30.03,ESE,103,0.0,2.0,68,0.00,,SKC,0.00,VWS V12.07,2013-07-25 02:40:00,
2013-07-24 21:47:00,68.1,57.6,30.03,East,92,0.0,2.0,69,0.00,,SKC,0.00,VWS V12.07,2013-07-25 02:47:00,
2013-07-24 21:55:00,68.1,58.0,30.04,East,91,0.0,2.0,70,0.00,,SKC,0.00,VWS V12.07,2013-07-25 02:55:00,
2013-07-24 22:02:00,68.3,58.2,30.03,East,89,0.0,0.0,70,0.00,,SKC,0.00,VWS V12.07,2013-07-25 03:02:00,
2013-07-24 22:09:00,68.0,57.9,30.04,East,95,0.0,1.0,70,0.00,,SKC,0.00,VWS V12.07,2013-07-25 03:09:00,
2013-07-24 22:15:00,67.9,57.8,30.04,East,98,0.0,1.0,70,0.00,,SKC,0.00,VWS V12.07,2013-07-25 03:15:00,
2013-07-24 22:24:00,67.6,57.9,30.04,East,94,0.0,1.0,71,0.00,,SKC,0.00,VWS V12.07,2013-07-25 03:24:00,
2013-07-24 22:30:00,67.3,58.0,30.03,East,94,0.0,1.0,72,0.00,,SKC,0.00,VWS V12.07,2013-07-25 03:30:00,
2013-07-24 22:37:00,66.9,57.6,30.03,SE,131,0.0,0.0,72,0.00,,SKC,0.00,VWS V12.07,2013-07-25 03:37:00,
2013-07-24 22:44:00,66.8,57.5,30.03,ESE,103,1.0,1.0,72,0.00,,SKC,0.00,VWS V12.07,2013-07-25 03:44:00,
2013-07-24 22:50:00,66.7,57.8,30.03,ESE,113,0.0,2.0,73,0.00,,SKC,0.00,VWS V12.07,2013-07-25 03:50:00,
2013-07-24 22:59:00,66.4,57.9,30.03,ESE,120,2.0,3.0,74,0.00,,SKC,0.00,VWS V12.07,2013-07-25 03:59:00,
2013-07-24 23:04:00,66.4,57.9,30.04,East,99,0.0,3.0,74,0.00,,SKC,0.00,VWS V12.07,2013-07-25 04:04:00,
2013-07-24 23:10:00,66.3,57.8,30.04,East,97,0.0,3.0,74,0.00,,SKC,0.00,VWS V12.07,2013-07-25 04:10:00,
2013-07-24 23:14:00,66.3,57.8,30.04,ESE,120,0.0,3.0,74,0.00,,SKC,0.00,VWS V12.07,2013-07-25 04:14:00,
2013-07-24 23:20:00,66.3,57.8,30.04,East,99,1.0,3.0,74,0.00,,SKC,0.00,VWS V12.07,2013-07-25 04:20:00,
2013-07-24 23:27:00,66.4,57.9,30.04,East,95,0.0,3.0,74,0.00,,SKC,0.00,VWS V12.07,2013-07-25 04:27:00,
2013-07-24 23:34:00,66.0,57.5,30.04,ESE,102,0.0,0.0,74,0.00,,SKC,0.00,VWS V12.07,2013-07-25 04:34:00,
2013-07-24 23:40:00,65.2,57.8,30.04,East,101,0.0,0.0,77,0.00,,SKC,0.00,VWS V12.07,2013-07-25 04:40:00,
2013-07-24 23:47:00,64.0,57.4,30.04,ESE,102,0.0,0.0,79,0.00,,SKC,0.00,VWS V12.07,2013-07-25 04:47:00,
2013-07-24 23:54:00,64.1,57.5,30.05,ESE,102,0.0,1.0,79,0.00,,SKC,0.00,VWS V12.07,2013-07-25 04:54:00,